Location: *
(46.0770°N, 1.6444°E)
Time: 20:18:32
(UTC+00:00)

H-2A R/B - Pass Details

Date: 16 September 2019
Orbit: 734 x 836 km, 98.3° (Epoch: 17 October)

Event Time Altitude Azimuth Distance (km) Brightness Sun altitude
Exits shadow 20:06:40 22° 181° (S) 1,577 3.4 -21.2°
Maximum altitude 20:09:49 65° 258° (WSW) 815 2.2 -21.7°
Drops below altitude 10° 20:14:48 10° 341° (NNW) 2,285 5.1 -22.5°
Sets 20:17:09 0° 344° (NNW) 3,227 5.9 -22.8°
